Location: Kernascl�den
(48.0062°N, 3.3198°W)
Time: 21:42:09
(UTC+00:00)

CZ-4 R/B - Pass Details

Date: 21 January 2021
Orbit: 531 x 599 km, 97.7° (Epoch: 03 March)

Event Time Altitude Azimuth Distance (km) Brightness Sun altitude
Rises 17:51:56 0° 137° (SE) 2,796 4.7 -9.3°
Reaches altitude 10° 17:54:18 10° 126° (SE) 1,891 3.7 -9.6°
Maximum altitude 17:57:48 28° 67° (ENE) 1,096 2.3 -10.2°
Drops below altitude 10° 18:01:15 10° 8° (N) 1,868 3.8 -10.7°
Sets 18:03:35 0° 357° (N) 2,756 4.7 -11.1°
